Hourly Data Report for October 24, 2015

All times are specified in Local Standard Time (LST). Add 1 hour to adjust for Daylight Saving Time where and when it is observed.

PETAWAWA AWOS 2
ONTARIO

45°57'00.000" N
77°19'00.000" W
130.10 m
6106396
71625
YWA

Download Data

Hourly Data (October 2015)
Hourly Data Report for October 24, 2015
Temp Definition
°C
Dew Point Temp Definition
°C
Rel Hum Definition
%
Wind Dir Definition
10's deg

Wind Spd Definition
km/h
Visibility Definition
km
Stn Press Definition
kPa
Hmdx Definition


Wind Chill Definition


Weather Definition


TIME
00:00 3.3 -0.1 78 14 15 14.5 101.03     LegendNANA
01:00 3.3 0.1 80 16 13 14.5 101.00     LegendNANA
02:00 2.0 -1.8 76 15 11 14.5 100.98     LegendNANA
03:00 2.8 0.0 82 12 11 14.5 100.91     LegendNANA
04:00 3.0 -0.1 80 15 9 14.5 100.87     LegendNANA
05:00 3.1 -0.3 78 12 15 14.5 100.82     LegendNANA
06:00 3.1 0.2 81 13 19 14.5 100.74     LegendNANA
07:00 3.0 -0.6 77 15 11 14.5 100.70     LegendNANA
08:00 3.1 -0.5 77 14 19 14.5 100.62     LegendNANA
09:00 3.6 0.0 77 13 20 14.5 100.52     LegendNANA
10:00 4.8 1.2 78 14 19 14.5 100.36     LegendNANA
11:00 5.8 1.3 73 14 24 14.5 100.27     Drizzle
12:00 7.1 1.2 66 14 24 14.5 100.17     LegendNANA
13:00 7.6 1.9 67 13 24 14.5 100.02     LegendNANA
14:00 8.0 2.5 68 14 22 14.5 99.96     Drizzle
15:00 7.6 3.6 76 13 24 14.5 99.85     Rain
16:00 7.5 4.0 78 15 17 14.5 99.78     Rain
17:00 8.7 4.2 73 14 22 14.5 99.62     Drizzle
18:00 8.1 4.8 80 14 22 14.5 99.52     Rain
19:00 7.9 5.4 84 14 22 14.5 99.47     Drizzle
20:00 8.1 6.3 88 14 19 14.5 99.33     Drizzle
21:00 8.1 7.0 93 14 13 14.5 99.23     Drizzle
22:00 8.3 7.8 97 13 13 4.0 99.14     Rain
23:00 9.5 8.7 95 14 17 14.5 99.00     LegendNANA

Notes on Data Quality.

Legend

  • E = Estimated
  • M = Missing
  • NA = Not Available
  • ‡ = Partner data that is not subject to review by the National Climate Archives
Date modified: